Location: La Chapelle
(48.3135°N, 1.3085°W)
Time: 22:02:20
(UTC+00:00)

Okean 1-7 - Pass Details

Date: 03 March 2021
Orbit: 589 x 619 km, 82.5° (Epoch: 20 April)

Event Time Altitude Azimuth Distance (km) Brightness Sun altitude
Rises 19:33:55 0° 349° (N) 2,900 6.8 -17.6°
Reaches altitude 10° 19:36:10 10° 349° (N) 1,986 5.9 -17.9°
Maximum altitude 19:40:34 82° 263° (W) 623 3.0 -18.7°
Drops below altitude 10° 19:44:53 10° 175° (S) 1,952 5.4 -19.4°
Enters shadow 19:45:36 - 175° (S) 2,242 5.7 -19.5°
